Location: Unspecified
(50.0000°N, 0.0000°E)
Time: 03:05:07
(UTC+00:00)

FENGYUN 1C DEB - Visible Passes

Search period start: 04 April 2026 00:00
Search period end: 14 April 2026 00:00
Orbit: 822 x 909 km, 99.1° (Epoch: 25 March)

Date Brightness Start Highest point End Pass type
(mag) Time Alt. Az. Time Alt. Az. Time Alt. Az.
4 Apr ? 00:15:14 40° NE 00:15:14 40° NE 00:19:52 10° N visible
4 Apr ? 01:57:32 29° NW 01:57:32 29° NW 02:00:51 10° NNW visible
5 Apr ? 00:07:30 36° NE 00:07:30 36° NE 00:12:18 10° N visible
5 Apr ? 01:49:48 33° NW 01:49:48 33° NW 01:53:27 10° NNW visible
5 Apr ? 23:59:46 33° ENE 23:59:46 33° ENE 00:04:44 10° N visible
6 Apr ? 01:42:04 39° NW 01:42:04 39° NW 01:46:01 10° NNW visible
6 Apr ? 23:52:01 29° ENE 23:52:15 30° ENE 23:57:08 10° N visible
7 Apr ? 01:34:19 44° NW 01:34:19 44° NW 01:38:34 10° NNW visible
7 Apr ? 23:44:17 26° ENE 23:44:51 27° ENE 23:49:32 10° N visible
8 Apr ? 01:26:35 51° NW 01:26:35 51° NW 01:31:07 10° NNW visible
8 Apr ? 23:36:33 23° ENE 23:37:26 24° NE 23:41:55 10° N visible
9 Apr ? 01:18:51 59° NW 01:18:51 59° NW 01:23:37 10° NNW visible
9 Apr ? 03:01:09 12° WNW 03:01:09 12° WNW 03:02:18 10° WNW visible
9 Apr ? 23:28:48 20° ENE 23:30:02 22° NE 23:34:16 10° N visible
10 Apr ? 01:11:07 67° NW 01:11:07 67° NW 01:16:09 10° NNW visible
10 Apr ? 02:53:25 14° WNW 02:53:25 14° WNW 02:55:21 10° NW visible
10 Apr ? 23:21:04 17° ENE 23:22:38 20° NE 23:26:36 10° N visible
11 Apr ? 01:03:22 75° N 01:03:22 75° N 01:08:38 10° NNW visible
11 Apr ? 02:45:41 16° WNW 02:45:41 16° WNW 02:48:14 10° NW visible
11 Apr ? 23:13:20 15° ENE 23:15:15 18° NE 23:18:55 10° NNE visible
12 Apr ? 00:55:38 76° NE 00:55:38 76° NE 01:01:08 10° NNW visible
12 Apr ? 02:37:56 19° WNW 02:37:56 19° WNW 02:41:02 10° NW visible
12 Apr ? 23:05:35 13° ENE 23:07:52 16° NE 23:11:11 10° NNE visible
13 Apr ? 00:47:54 70° ENE 00:47:54 70° ENE 00:53:36 10° NNW visible
13 Apr ? 02:30:12 22° WNW 02:30:12 22° WNW 02:33:46 10° NW visible
13 Apr ? 22:57:51 11° ENE 23:00:30 14° NE 23:03:24 10° NNE visible
